Location: Charbonni�res
(45.9952°N, 2.9982°E)
Time: 18:17:19
(UTC+00:00)

Atlas Centaur 2 - Pass Details

Date: 29 November 2020
Orbit: 459 x 1309 km, 30.4° (Epoch: 22 January)

Event Time Altitude Azimuth Distance (km) Brightness Sun altitude
Exits shadow 04:27:16 15° 197° (SSW) 2,330 4.3 -27.1°
Maximum altitude 04:29:07 17° 177° (S) 2,138 4.3 -26.8°
Drops below altitude 10° 04:32:49 10° 138° (SE) 2,426 5.1 -26.2°
Sets 04:35:54 0° 118° (ESE) 3,187 6.3 -25.6°
